Location: LDNL
(36.4545°S, 141.6685°E)
Time: 15:21:58
(UTC+10:00)

Courier 1B - Pass Details

Date: 15 August 2022
Orbit: 962 x 1209 km, 28.3° (Epoch: 25 September)

Event Time Altitude Azimuth Distance (km) Brightness Sun altitude
Rises 19:57:26 0° 340° (NNW) 3,797 10.8 -24.2°
Reaches altitude 10° 20:02:04 10° 8° (N) 2,911 9.9 -25.1°
Enters shadow 20:03:36 12° 21° (NNE) 2,788 9.7 -25.4°
